Regional Weather Roundup
Issued by NWS

Home | Current Version | Previous Version | Graphics & Text | Print | Product List | Glossary On
Versions: 1 2 3 4 5 6 7 8 9 10 11 12 13 14 15 16 17 18 19 20 21 22 23 24 25 26 27 28 29 30 31 32 33 34 35 36 37 38 39 40 41 42 43 44 45 46 47 48 49 50
000
ASUS43 KLMK 280602
RWRKY
KENTUCKY REGIONAL WEATHER ROUNDUP
NATIONAL WEATHER SERVICE LOUISVILLE KY
200 AM EDT TUE JUL 28 2015

NOTE "FAIR" INDICATES FEW OR NO CLOUDS BELOW 12,000 FEET
WITH NO SIGNIFICANT WEATHER AND/OR OBSTRUCTIONS TO VISIBILITY.

KYZ001>023-026-027-061>063-070>075-280700-
WESTERN AND SOUTH CENTRAL KENTUCKY

CITY           SKY/WX    TMP DP  RH WIND       PRES   REMARKS
PADUCAH        CLOUDY    77  74  90 NW5       29.95S
HENDERSON      CLOUDY    73  70  88 CALM      29.94F
OWENSBORO      CLOUDY    76  73  90 S6        29.97R
HOPKINSVILLE   CLOUDY    78  74  88 NE2       29.97S
BOWLING GREEN  CLOUDY    77  73  87 CALM      29.98S
GLASGOW        NOT AVBL
$$

KYZ024-025-028>034-038-045-046-053-280700-
NORTH CENTRAL KENTUCKY

CITY           SKY/WX    TMP DP  RH WIND       PRES   REMARKS
LOUISVILLE/SDF CLOUDY    81  76  84 CALM      29.96S
LOUISVILLE/LOU CLOUDY    81  75  82 CALM      29.97F
FORT KNOX      CLOUDY    75  73  95 S2        29.96S
$$

KYZ035>037-039>044-047>052-055>060-089>105-280700-
NORTHEAST KENTUCKY

CITY           SKY/WX    TMP DP  RH WIND       PRES   REMARKS
LEXINGTON      PTCLDY    74  71  91 CALM      30.00F
COVINGTON      CLOUDY    77  72  84 CALM      29.99F
FRANKFORT      CLOUDY    76  68  76 NW6       30.00S
$$

KYZ054-064>069-076>088-106>120-280700-
SOUTHEAST KENTUCKY

CITY           SKY/WX    TMP DP  RH WIND       PRES   REMARKS
JACKSON        MOCLDY    73  72  96 CALM      30.03F FOG
LONDON         CLEAR     73  69  87 CALM      30.02F FOG
SOMERSET       NOT AVBL
MIDDLESBORO    NOT AVBL
MONTICELLO     PTCLDY    73  73 100 CALM      30.03F FOG
$$




USA.gov is the U.S. government's official web portal to all federal, state and local government web resources and services.